Weather History for PAFA - May, 2013

Change the Weather History Date:

Tuesday, May 14, 2013

  Actual Average Record
Temperature  
Mean Temperature 34 °F 49 °F  
Max Temperature 42 °F 60 °F 80 °F (1915)
Min Temperature 26 °F 37 °F 21 °F (1913)
Degree Days  
Heating Degree Days 31 16  
Month to date heating degree days 414 268  
Since 1 July heating degree days 14573 13292  
Cooling Degree Days 0 0  
Month to date cooling degree days 0 0  
Year to date cooling degree days 0 0  
Moisture  
Dew Point 13 °F    
Average Humidity 41    
Maximum Humidity 58    
Minimum Humidity 20    
Precipitation  
Precipitation 0.00 in 0.01 in 0.49 in (1940)
Month to date precipitation 0.11 0.23  
Year to date precipitation 2.30 1.79  
Snow  
Snow 0.00 in 0.00 in 0.20 in (1964)
Month to date snowfall 1.7 0.6  
Since 1 July snowfall 68.3 64.7  
Snow Depth 0.00 in    
Sea Level Pressure  
Sea Level Pressure 29.66 in    
Wind  
Wind Speed 4 mph (SSW)    
Max Wind Speed 13 mph    
Max Gust Speed 17 mph    
Visibility 10 miles    
Events      
T = Trace of Precipitation, MM = Missing Value Source: NWS Daily Summary

Daily Weather History Graph

Daily Weather History Graph

Search for Another Location

Airport or City:

Trip Planner

Search our weather history database for the weather conditions in past years. The results will help you decide how hot, cold, wet, or windy it might be!

Date:

Astronomy

May. 14, 2013 Rise Set
Actual Time 4:31 AM AKDT 11:07 PM AKDT
Civil Twilight 2:34 AM AKDT 1:13 AM AKDT
Nautical Twilight Sun does not rise Sun does not rise
Astronomical Twilight Sun does not rise Sun does not rise
Moon 8:29 AM AKDT (5/14) 2:13 AM AKDT (5/14)
Length of Visible Light 22h 39m
Length of Day
18h 36m
Waxing Crescent, 20% of the Moon is Illuminated
May 14
Waxing Crescent
May 17
First Quarter
May 24
Full
May 31
Last Quarter
Jun 8
New

Hourly Weather History & Observations

Time (AKDT) Temp. Windchill Dew Point Humidity Pressure Visibility Wind Dir Wind Speed Gust Speed Precip Events Conditions
12:53 AM 27.0 °F 23.0 °F 14.0 °F 58% 29.66 in 10.0 mi WNW 3.5 mph - N/A   Mostly Cloudy
1:53 AM 28.0 °F 24.2 °F 10.9 °F 49% 29.67 in 10.0 mi WNW 3.5 mph - N/A   Mostly Cloudy
2:53 AM 28.9 °F 23.9 °F 10.9 °F 47% 29.67 in 10.0 mi NNW 4.6 mph - N/A   Mostly Cloudy
3:53 AM 27.0 °F - 12.9 °F 56% 29.68 in 10.0 mi Calm Calm - N/A   Mostly Cloudy
4:53 AM 27.0 °F 21.6 °F 12.9 °F 56% 29.68 in 10.0 mi NNW 4.6 mph - N/A   Mostly Cloudy
5:53 AM 28.0 °F - 14.0 °F 56% 29.68 in 10.0 mi Calm Calm - N/A   Mostly Cloudy
6:53 AM 27.0 °F - 14.0 °F 58% 29.68 in 10.0 mi Calm Calm - N/A   Mostly Cloudy
7:53 AM 28.9 °F - 12.9 °F 51% 29.69 in 10.0 mi Calm Calm - N/A   Mostly Cloudy
8:53 AM 30.9 °F 26.2 °F 10.9 °F 43% 29.69 in 10.0 mi SSE 4.6 mph - N/A   Partly Cloudy
9:53 AM 32.0 °F 25.6 °F 10.0 °F 40% 29.69 in 10.0 mi South 6.9 mph - N/A   Partly Cloudy
10:53 AM 34.0 °F 25.0 °F 12.0 °F 40% 29.68 in 10.0 mi South 12.7 mph - N/A   Partly Cloudy
11:53 AM 35.1 °F 29.3 °F 12.0 °F 39% 29.68 in 10.0 mi South 6.9 mph - N/A   Partly Cloudy
12:53 PM 36.0 °F 29.0 °F 14.0 °F 41% 29.67 in 10.0 mi South 9.2 mph - N/A   Partly Cloudy
1:53 PM 37.0 °F 31.0 °F 14.0 °F 39% 29.65 in 10.0 mi SE 8.1 mph - N/A   Partly Cloudy
2:53 PM 39.0 °F 33.4 °F 12.9 °F 34% 29.65 in 10.0 mi SE 8.1 mph - N/A   Scattered Clouds
3:53 PM 39.9 °F 33.9 °F 16.0 °F 38% 29.65 in 10.0 mi SSE 9.2 mph - N/A   Scattered Clouds
4:53 PM 39.9 °F 35.1 °F 15.1 °F 36% 29.63 in 10.0 mi South 6.9 mph 17.3 mph N/A   Scattered Clouds
5:53 PM 41.0 °F 37.1 °F 14.0 °F 33% 29.63 in 10.0 mi SSW 5.8 mph - N/A   Scattered Clouds
6:53 PM 42.1 °F 37.1 °F 14.0 °F 32% 29.64 in 10.0 mi SSW 8.1 mph - N/A   Scattered Clouds
7:53 PM 42.1 °F 37.7 °F 14.0 °F 32% 29.64 in 10.0 mi SSW 6.9 mph - N/A   Scattered Clouds
8:53 PM 41.0 °F 37.1 °F 12.9 °F 32% 29.64 in 10.0 mi SSW 5.8 mph - N/A   Scattered Clouds
9:53 PM 39.9 °F 36.7 °F 12.9 °F 33% 29.64 in 10.0 mi WSW 4.6 mph - N/A   Partly Cloudy
10:53 PM 37.0 °F - 16.0 °F 42% 29.65 in 10.0 mi Calm Calm - N/A   Scattered Clouds
11:53 PM 30.9 °F - 16.0 °F 54% 29.65 in 10.0 mi Calm Calm - N/A   Scattered Clouds